OneWeb SL0092

operational
NORAD ID: 45437 Int'l Des: 2020-020 Owner: ONEWEB Country: UK Constellation: oneweb
LEOCIRCULARPOLARONEWEB_TYPE

OneWeb SL0092について

説明を読み込み中...

リアルタイム位置

3D地球を読み込み中...

次回通過

高度履歴

Altitude vs Time

uPlot chart will show altitude changes over time

軌道要素

1 45437U 20020P 26034.49933931 .00000123 00000-0 31227-3 0 9997
2 45437 87.8818 47.6643 0002171 87.6338 272.5038 13.11413331285262
Epoch: Feb 3, 2026 • Age: 18 hours

現在のステータス

高度 1221.3 km
速度 7.25 km/s
衛星直下点 34.93°N, 177.46°E
打ち上げ日 Mar 21, 2020
運用期間 5.8 years
タイプ internet

技術仕様

分類 Payload
質量 148.00 kg
乾燥質量 140.00 kg
総質量 148.00 kg
長さ 1.30 m
直径 1.00 m
スパン 5.00 m
形状 Trapezoid+2 pan
製造者 ONEWUS
バスタイプ ARROW
フェーズステータス In Orbit
所有者/国 ONEWEB/UK

大規模コンステレーション

Loading constellations...